| time (UTC) | temp C | wind direction | speed KPH | gust KPH | rain 1hr cm | rain 24hr cm | rain mn cm | humidity % | barometer mb |
| 20260509011538 | 16 | 24 | 0.0 | 0.0 | 0.00 | 0.00 | 0.00 | 49 | 1016.2 |
| 20260509011034 | 16 | 24 | 0.0 | 0.0 | 0.00 | 0.00 | 0.00 | 50 | 1016.0 |
| 20260509010532 | 16 | 25 | 0.0 | 0.0 | 0.00 | 0.00 | 0.00 | 47 | 1016.2 |
| 20260509010029 | 16 | 24 | 0.0 | 0.0 | 0.00 | 0.00 | 0.00 | 44 | 1016.1 |
| 20260509005527 | 17 | 22 | 0.0 | 0.0 | 0.00 | 0.00 | 0.00 | 44 | 1016.2 |
| 20260509005027 | 17 | 22 | 0.0 | 0.0 | 0.00 | 0.00 | 0.00 | 43 | 1016.1 |
| 20260509004524 | 17 | 21 | 0.0 | 0.0 | 0.00 | 0.00 | 0.00 | 43 | 1016.3 |
| 20260509004021 | 17 | 12 | 0.0 | 0.0 | 0.00 | 0.00 | 0.00 | 43 | 1016.3 |
| 20260509003519 | 18 | 10 | 0.0 | 0.0 | 0.00 | 0.00 | 0.00 | 40 | 1016.3 |
| 20260509003016 | 18 | 359 | 0.0 | 0.0 | 0.00 | 0.00 | 0.00 | 40 | 1016.4 |
| 20260509002513 | 18 | 0 | 0.0 | 3.2 | 0.00 | 0.00 | 0.00 | 38 | 1016.3 |
| 20260509002010 | 19 | 0 | 0.0 | 3.2 | 0.00 | 0.00 | 0.00 | 37 | 1016.5 |
| 20260509001508 | 19 | 359 | 0.0 | 3.2 | 0.00 | 0.00 | 0.00 | 39 | 1016.6 |
| 20260509001004 | 19 | 339 | 0.0 | 3.2 | 0.00 | 0.00 | 0.00 | 35 | 1016.5 |
| 20260509000502 | 19 | 7 | 0.0 | 4.8 | 0.00 | 0.00 | 0.00 | 36 | 1016.6 |
| 20260508235957 | 20 | 10 | 0.0 | 3.2 | 0.00 | 0.00 | 0.00 | 37 | 1016.5 |
| 20260508235456 | 20 | 338 | 1.6 | 4.8 | 0.00 | 0.00 | 0.00 | 34 | 1016.7 |
| 20260508234952 | 20 | 331 | 6.4 | 11.3 | 0.00 | 0.00 | 0.00 | 33 | 1016.7 |
| 20260508234449 | 20 | 296 | 3.2 | 8.0 | 0.00 | 0.00 | 0.00 | 34 | 1016.8 |
| 20260508233946 | 20 | 334 | 3.2 | 4.8 | 0.00 | 0.00 | 0.00 | 34 | 1017.0 |
| 20260508233446 | 20 | 342 | 3.2 | 8.0 | 0.00 | 0.00 | 0.00 | 34 | 1016.8 |
| 20260508232942 | 20 | 313 | 3.2 | 14.5 | 0.00 | 0.00 | 0.00 | 33 | 1016.9 |
| 20260508232439 | 20 | 332 | 3.2 | 8.0 | 0.00 | 0.00 | 0.00 | 33 | 1016.7 |
| 20260508231936 | 20 | 297 | 1.6 | 14.5 | 0.00 | 0.00 | 0.00 | 34 | 1016.8 |
| 20260508231434 | 20 | 16 | 3.2 | 14.5 | 0.00 | 0.00 | 0.00 | 33 | 1016.8 |
| 20260508230930 | 20 | 298 | 4.8 | 8.0 | 0.00 | 0.00 | 0.00 | 33 | 1016.8 |
| 20260508230427 | 20 | 279 | 1.6 | 4.8 | 0.00 | 0.00 | 0.00 | 33 | 1016.7 |
| 20260508225924 | 21 | 335 | 3.2 | 11.3 | 0.00 | 0.00 | 0.00 | 32 | 1016.8 |
| 20260508225421 | 21 | 319 | 4.8 | 8.0 | 0.00 | 0.00 | 0.00 | 33 | 1016.8 |
| 20260508224918 | 21 | 252 | 1.6 | 11.3 | 0.00 | 0.00 | 0.00 | 34 | 1017.0 |
| 20260508224416 | 21 | 329 | 6.4 | 14.5 | 0.00 | 0.00 | 0.00 | 32 | 1016.8 |
| 20260508223913 | 22 | 12 | 1.6 | 8.0 | 0.00 | 0.00 | 0.00 | 33 | 1016.9 |
| 20260508223411 | 21 | 0 | 3.2 | 4.8 | 0.00 | 0.00 | 0.00 | 34 | 1016.8 |
| 20260508222908 | 21 | 289 | 6.4 | 14.5 | 0.00 | 0.00 | 0.00 | 31 | 1016.6 |
| 20260508222405 | 21 | 88 | 8.0 | 19.3 | 0.00 | 0.00 | 0.00 | 31 | 1016.9 |
| 20260508221901 | 21 | 278 | 9.7 | 11.3 | 0.00 | 0.00 | 0.00 | 32 | 1017.0 |
| 20260508221357 | 22 | 340 | 4.8 | 11.3 | 0.00 | 0.00 | 0.00 | 31 | 1016.8 |
| 20260508220854 | 22 | 357 | 0.0 | 8.0 | 0.00 | 0.00 | 0.00 | 33 | 1016.7 |
| 20260508220350 | 22 | 354 | 4.8 | 8.0 | 0.00 | 0.00 | 0.00 | 31 | 1016.7 |
| 20260508215847 | 22 | 18 | 11.3 | 19.3 | 0.00 | 0.00 | 0.00 | 30 | 1016.8 |
| 20260508215344 | 22 | 344 | 1.6 | 11.3 | 0.00 | 0.00 | 0.00 | 30 | 1016.6 |
| 20260508214840 | 22 | 41 | 3.2 | 11.3 | 0.00 | 0.00 | 0.00 | 29 | 1016.3 |
| 20260508214338 | 22 | 351 | 4.8 | 14.5 | 0.00 | 0.00 | 0.00 | 30 | 1016.5 |
| 20260508213834 | 22 | 217 | 6.4 | 8.0 | 0.00 | 0.00 | 0.00 | 31 | 1016.3 |
| 20260508213332 | 22 | 357 | 6.4 | 8.0 | 0.00 | 0.00 | 0.00 | 31 | 1016.7 |
| 20260508212827 | 23 | 307 | 8.0 | 11.3 | 0.00 | 0.00 | 0.00 | 30 | 1016.6 |
| 20260508212323 | 22 | 359 | 6.4 | 19.3 | 0.00 | 0.00 | 0.00 | 31 | 1016.9 |
| 20260508211819 | 22 | 309 | 4.8 | 22.5 | 0.00 | 0.00 | 0.00 | 30 | 1016.8 |
| 20260508211315 | 22 | 328 | 3.2 | 14.5 | 0.00 | 0.00 | 0.00 | 32 | 1017.0 |
| 20260508210813 | 22 | 0 | 4.8 | 14.5 | 0.00 | 0.00 | 0.00 | 30 | 1017.3 |
| 20260508210310 | 22 | 13 | 3.2 | 8.0 | 0.00 | 0.00 | 0.00 | 31 | 1017.0 |
| 20260508205806 | 22 | 289 | 6.4 | 14.5 | 0.00 | 0.00 | 0.00 | 30 | 1017.3 |
| 20260508205306 | 22 | 345 | 4.8 | 8.0 | 0.00 | 0.00 | 0.00 | 29 | 1017.0 |
| 20260508204759 | 22 | 203 | 6.4 | 8.0 | 0.00 | 0.00 | 0.00 | 30 | 1017.4 |
| 20260508204256 | 22 | 314 | 4.8 | 8.0 | 0.00 | 0.00 | 0.00 | 32 | 1017.4 |
| 20260508203752 | 22 | 241 | 3.2 | 11.3 | 0.00 | 0.00 | 0.00 | 31 | 1017.6 |
| 20260508203248 | 21 | 258 | 4.8 | 14.5 | 0.00 | 0.00 | 0.00 | 32 | 1017.7 |
| 20260508202744 | 22 | 0 | 4.8 | 14.5 | 0.00 | 0.00 | 0.00 | 32 | 1017.8 |
| 20260508202241 | 22 | 271 | 11.3 | 16.1 | 0.00 | 0.00 | 0.00 | 32 | 1018.1 |
| 20260508201738 | 22 | 215 | 12.9 | 16.1 | 0.00 | 0.00 | 0.00 | 30 | 1017.8 |
| 20260508201235 | 22 | 313 | 6.4 | 11.3 | 0.00 | 0.00 | 0.00 | 30 | 1018.1 |
| 20260508200732 | 22 | 42 | 3.2 | 8.0 | 0.00 | 0.00 | 0.00 | 29 | 1017.7 |
| 20260508200228 | 22 | 354 | 6.4 | 11.3 | 0.00 | 0.00 | 0.00 | 31 | 1017.8 |
| 20260508195724 | 22 | 313 | 9.7 | 19.3 | 0.00 | 0.00 | 0.00 | 31 | 1017.7 |
| 20260508195221 | 22 | 34 | 3.2 | 11.3 | 0.00 | 0.00 | 0.00 | 31 | 1017.8 |
| 20260508194718 | 22 | 305 | 9.7 | 14.5 | 0.00 | 0.00 | 0.00 | 31 | 1018.1 |
| 20260508194214 | 22 | 310 | 3.2 | 8.0 | 0.00 | 0.00 | 0.00 | 35 | 1017.8 |
| 20260508193712 | 22 | 265 | 4.8 | 8.0 | 0.00 | 0.00 | 0.00 | 36 | 1017.8 |
| 20260508193208 | 22 | 165 | 3.2 | 8.0 | 0.00 | 0.00 | 0.00 | 36 | 1018.2 |
| 20260508192705 | 22 | 310 | 4.8 | 8.0 | 0.00 | 0.00 | 0.00 | 34 | 1018.0 |
| 20260508192202 | 21 | 334 | 0.0 | 16.1 | 0.00 | 0.00 | 0.00 | 34 | 1018.1 |
| 20260508191659 | 22 | 326 | 3.2 | 11.3 | 0.00 | 0.00 | 0.00 | 35 | 1018.1 |
| 20260508191155 | 22 | 345 | 9.7 | 16.1 | 0.00 | 0.00 | 0.00 | 32 | 1017.8 |
| 20260508190653 | 22 | 325 | 8.0 | 11.3 | 0.00 | 0.00 | 0.00 | 36 | 1018.3 |
| 20260508190149 | 22 | 24 | 3.2 | 11.3 | 0.00 | 0.00 | 0.00 | 37 | 1018.4 |
| 20260508185646 | 22 | 355 | 1.6 | 11.3 | 0.00 | 0.00 | 0.00 | 34 | 1018.3 |
| 20260508185143 | 22 | 13 | 4.8 | 8.0 | 0.00 | 0.00 | 0.00 | 35 | 1018.6 |
| 20260508184641 | 22 | 13 | 0.0 | 8.0 | 0.00 | 0.00 | 0.00 | 33 | 1018.6 |
| 20260508184138 | 22 | 334 | 8.0 | 14.5 | 0.00 | 0.00 | 0.00 | 32 | 1018.7 |
| 20260508183634 | 22 | 39 | 1.6 | 11.3 | 0.00 | 0.00 | 0.00 | 32 | 1018.6 |
| 20260508183130 | 22 | 227 | 4.8 | 4.8 | 0.00 | 0.00 | 0.00 | 33 | 1018.7 |
| 20260508182627 | 22 | 354 | 8.0 | 16.1 | 0.00 | 0.00 | 0.00 | 31 | 1018.9 |
| 20260508182124 | 22 | 36 | 3.2 | 4.8 | 0.00 | 0.00 | 0.00 | 33 | 1019.2 |
| 20260508181619 | 21 | 12 | 4.8 | 14.5 | 0.00 | 0.00 | 0.00 | 34 | 1019.2 |
| 20260508181117 | 21 | 293 | 4.8 | 8.0 | 0.00 | 0.00 | 0.00 | 34 | 1019.3 |
| 20260508180613 | 21 | 287 | 4.8 | 14.5 | 0.00 | 0.00 | 0.00 | 32 | 1019.4 |
| 20260508180109 | 21 | 301 | 4.8 | 14.5 | 0.00 | 0.00 | 0.00 | 34 | 1019.3 |
| 20260508175606 | 21 | 335 | 9.7 | 16.1 | 0.00 | 0.00 | 0.00 | 35 | 1019.6 |
| 20260508175103 | 22 | 23 | 3.2 | 11.3 | 0.00 | 0.00 | 0.00 | 28 | 1019.7 |
| 20260508174601 | 21 | 45 | 3.2 | 4.8 | 0.00 | 0.00 | 0.00 | 32 | 1019.8 |
| 20260508174057 | 21 | 343 | 3.2 | 19.3 | 0.00 | 0.00 | 0.00 | 31 | 1020.0 |
| 20260508173555 | 20 | 201 | 8.0 | 11.3 | 0.00 | 0.00 | 0.00 | 32 | 1020.0 |
| 20260508173050 | 21 | 319 | 3.2 | 11.3 | 0.00 | 0.00 | 0.00 | 34 | 1019.8 |
| 20260508172548 | 21 | 3 | 3.2 | 22.5 | 0.00 | 0.00 | 0.00 | 35 | 1020.2 |
| 20260508172044 | 20 | 291 | 6.4 | 11.3 | 0.00 | 0.00 | 0.00 | 34 | 1020.3 |
| 20260508171541 | 20 | 20 | 0.0 | 14.5 | 0.00 | 0.00 | 0.00 | 37 | 1020.1 |
| 20260508171038 | 21 | 16 | 4.8 | 11.3 | 0.00 | 0.00 | 0.00 | 35 | 1020.4 |
| 20260508170535 | 20 | 22 | 4.8 | 8.0 | 0.00 | 0.00 | 0.00 | 36 | 1020.3 |
| 20260508170032 | 20 | 247 | 4.8 | 8.0 | 0.00 | 0.00 | 0.00 | 39 | 1020.6 |
| 20260508165529 | 21 | 344 | 4.8 | 8.0 | 0.00 | 0.00 | 0.00 | 39 | 1020.8 |
| 20260508165026 | 20 | 14 | 3.2 | 11.3 | 0.00 | 0.00 | 0.00 | 42 | 1021.1 |
| 20260508164522 | 19 | 317 | 6.4 | 11.3 | 0.00 | 0.00 | 0.00 | 39 | 1021.2 |
| 20260508164019 | 19 | 300 | 8.0 | 14.5 | 0.00 | 0.00 | 0.00 | 39 | 1021.1 |
| 20260508163517 | 19 | 23 | 0.0 | 8.0 | 0.00 | 0.00 | 0.00 | 41 | 1021.0 |
| 20260508163013 | 19 | 257 | 6.4 | 11.3 | 0.00 | 0.00 | 0.00 | 41 | 1021.3 |
| 20260508162510 | 19 | 342 | 1.6 | 4.8 | 0.00 | 0.00 | 0.00 | 40 | 1021.2 |
| 20260508162007 | 19 | 332 | 4.8 | 8.0 | 0.00 | 0.00 | 0.00 | 42 | 1021.4 |
| 20260508161504 | 19 | 295 | 8.0 | 11.3 | 0.00 | 0.00 | 0.00 | 42 | 1021.3 |
| 20260508161001 | 18 | 260 | 3.2 | 8.0 | 0.00 | 0.00 | 0.00 | 43 | 1021.3 |
| 20260508160500 | 18 | 334 | 6.4 | 8.0 | 0.00 | 0.00 | 0.00 | 45 | 1021.4 |
| 20260508155955 | 18 | 307 | 4.8 | 8.0 | 0.00 | 0.00 | 0.00 | 41 | 1021.7 |
| 20260508155453 | 18 | 19 | 4.8 | 8.0 | 0.00 | 0.00 | 0.00 | 43 | 1021.6 |
| 20260508154950 | 18 | 280 | 3.2 | 14.5 | 0.00 | 0.00 | 0.00 | 43 | 1021.6 |
| 20260508154448 | 18 | 53 | 1.6 | 8.0 | 0.00 | 0.00 | 0.00 | 41 | 1021.7 |
| 20260508153944 | 18 | 285 | 6.4 | 8.0 | 0.00 | 0.00 | 0.00 | 42 | 1021.7 |
| 20260508153441 | 18 | 315 | 6.4 | 11.3 | 0.00 | 0.00 | 0.00 | 42 | 1021.9 |
| 20260508152937 | 18 | 269 | 8.0 | 11.3 | 0.00 | 0.00 | 0.00 | 40 | 1022.0 |
| 20260508152434 | 18 | 156 | 6.4 | 11.3 | 0.00 | 0.00 | 0.00 | 38 | 1021.9 |
| 20260508151930 | 18 | 319 | 3.2 | 8.0 | 0.00 | 0.00 | 0.00 | 39 | 1022.0 |
| 20260508151427 | 17 | 357 | 0.0 | 11.3 | 0.00 | 0.00 | 0.00 | 41 | 1022.1 |
| 20260508150923 | 17 | 109 | 3.2 | 8.0 | 0.00 | 0.00 | 0.00 | 41 | 1022.2 |
| 20260508150420 | 17 | 0 | 0.0 | 11.3 | 0.00 | 0.00 | 0.00 | 43 | 1022.2 |
| 20260508145916 | 17 | 345 | 4.8 | 14.5 | 0.00 | 0.00 | 0.00 | 40 | 1022.1 |
| 20260508145413 | 17 | 324 | 3.2 | 11.3 | 0.00 | 0.00 | 0.00 | 41 | 1022.1 |
| 20260508144910 | 16 | 41 | 3.2 | 11.3 | 0.00 | 0.00 | 0.00 | 42 | 1022.1 |
| 20260508144408 | 16 | 307 | 4.8 | 14.5 | 0.00 | 0.00 | 0.00 | 45 | 1021.9 |
| 20260508143905 | 16 | 14 | 1.6 | 3.2 | 0.00 | 0.00 | 0.00 | 41 | 1022.0 |
| 20260508143402 | 16 | 289 | 8.0 | 11.3 | 0.00 | 0.00 | 0.00 | 44 | 1022.1 |
| 20260508142858 | 15 | 302 | 3.2 | 4.8 | 0.00 | 0.00 | 0.00 | 45 | 1022.2 |
| 20260508142355 | 15 | 263 | 3.2 | 4.8 | 0.00 | 0.00 | 0.00 | 45 | 1022.0 |
| 20260508141852 | 15 | 326 | 3.2 | 8.0 | 0.00 | 0.00 | 0.00 | 44 | 1022.1 |
| 20260508141348 | 15 | 351 | 3.2 | 11.3 | 0.00 | 0.00 | 0.00 | 45 | 1022.0 |
| 20260508140846 | 15 | 330 | 3.2 | 11.3 | 0.00 | 0.00 | 0.00 | 47 | 1022.1 |
| 20260508140343 | 15 | 308 | 3.2 | 11.3 | 0.00 | 0.00 | 0.00 | 46 | 1022.2 |
| 20260508135838 | 15 | 350 | 4.8 | 11.3 | 0.00 | 0.00 | 0.00 | 46 | 1021.9 |
| 20260508135335 | 15 | 250 | 4.8 | 11.3 | 0.00 | 0.00 | 0.00 | 45 | 1022.2 |
| 20260508134831 | 14 | 328 | 3.2 | 4.8 | 0.00 | 0.00 | 0.00 | 47 | 1022.1 |
| 20260508134328 | 14 | 293 | 4.8 | 14.5 | 0.00 | 0.00 | 0.00 | 47 | 1022.1 |
| 20260508133825 | 14 | 354 | 3.2 | 11.3 | 0.00 | 0.00 | 0.00 | 48 | 1022.0 |
| 20260508133323 | 13 | 309 | 4.8 | 14.5 | 0.00 | 0.00 | 0.00 | 49 | 1022.0 |
| 20260508132820 | 12 | 1 | 1.6 | 3.2 | 0.00 | 0.00 | 0.00 | 55 | 1022.0 |
| 20260508132317 | 12 | 6 | 0.0 | 3.2 | 0.00 | 0.00 | 0.00 | 58 | 1022.1 |
| 20260508131814 | 11 | 286 | 1.6 | 3.2 | 0.00 | 0.00 | 0.00 | 62 | 1021.9 |
| 20260508131309 | 11 | 308 | 0.0 | 3.2 | 0.00 | 0.00 | 0.00 | 65 | 1022.1 |
| 20260508130806 | 11 | 17 | 0.0 | 3.2 | 0.00 | 0.00 | 0.00 | 65 | 1022.0 |
| 20260508130304 | 10 | 0 | 3.2 | 3.2 | 0.00 | 0.00 | 0.00 | 66 | 1022.2 |
| 20260508125759 | 10 | 340 | 0.0 | 3.2 | 0.00 | 0.00 | 0.00 | 67 | 1022.2 |
| 20260508125256 | 10 | 235 | 0.0 | 3.2 | 0.00 | 0.00 | 0.00 | 70 | 1021.8 |
| 20260508124754 | 9 | 356 | 0.0 | 3.2 | 0.00 | 0.00 | 0.00 | 69 | 1022.2 |
| 20260508124251 | 8 | 353 | 0.0 | 3.2 | 0.00 | 0.00 | 0.00 | 70 | 1022.0 |
| 20260508123749 | 8 | 340 | 0.0 | 3.2 | 0.00 | 0.00 | 0.00 | 72 | 1022.3 |
| 20260508123247 | 8 | 354 | 0.0 | 3.2 | 0.00 | 0.00 | 0.00 | 72 | 1022.2 |
| 20260508122743 | 8 | 355 | 0.0 | 3.2 | 0.00 | 0.00 | 0.00 | 72 | 1022.1 |
| 20260508122240 | 7 | 346 | 0.0 | 3.2 | 0.00 | 0.00 | 0.00 | 74 | 1022.1 |
| 20260508121737 | 7 | 356 | 0.0 | 3.2 | 0.00 | 0.00 | 0.00 | 80 | 1022.3 |
| 20260508121235 | 6 | 345 | 1.6 | 3.2 | 0.00 | 0.00 | 0.00 | 81 | 1022.2 |
| 20260508120732 | 5 | 5 | 0.0 | 3.2 | 0.00 | 0.00 | 0.00 | 88 | 1022.0 |
| 20260508120231 | 5 | 22 | 0.0 | 0.0 | 0.00 | 0.00 | 0.00 | 94 | 1022.2 |
| 20260508115728 | 5 | 24 | 0.0 | 0.0 | 0.00 | 0.00 | 0.00 | 97 | 1022.0 |
| 20260508115225 | 4 | 24 | 0.0 | 0.0 | 0.00 | 0.00 | 0.00 | 97 | 1022.0 |
| 20260508114721 | 4 | 24 | 0.0 | 0.0 | 0.00 | 0.00 | 0.00 | 98 | 1021.9 |
| 20260508114218 | 4 | 24 | 0.0 | 0.0 | 0.00 | 0.00 | 0.00 | 98 | 1021.9 |
| 20260508113715 | 3 | 24 | 0.0 | 0.0 | 0.00 | 0.00 | 0.00 | 98 | 1021.7 |
| 20260508113214 | 3 | 25 | 0.0 | 0.0 | 0.00 | 0.00 | 0.00 | 98 | 1021.7 |
| 20260508112709 | 3 | 25 | 0.0 | 0.0 | 0.00 | 0.00 | 0.00 | 98 | 1021.7 |
| 20260508112206 | 3 | 25 | 0.0 | 0.0 | 0.00 | 0.00 | 0.00 | 98 | 1021.7 |
| 20260508111703 | 3 | 24 | 0.0 | 0.0 | 0.00 | 0.00 | 0.00 | 98 | 1021.7 |
| 20260508111201 | 3 | 23 | 0.0 | 0.0 | 0.00 | 0.00 | 0.00 | 98 | 1021.6 |
| 20260508110657 | 3 | 22 | 0.0 | 0.0 | 0.00 | 0.00 | 0.00 | 98 | 1021.6 |
| 20260508110155 | 3 | 23 | 0.0 | 0.0 | 0.00 | 0.00 | 0.00 | 98 | 1021.3 |
| 20260508105654 | 3 | 21 | 0.0 | 0.0 | 0.00 | 0.00 | 0.00 | 98 | 1021.2 |
| 20260508105152 | 3 | 21 | 0.0 | 0.0 | 0.00 | 0.00 | 0.00 | 98 | 1021.1 |
| 20260508104649 | 3 | 22 | 0.0 | 0.0 | 0.00 | 0.00 | 0.00 | 98 | 1021.1 |
| 20260508104146 | 3 | 22 | 0.0 | 0.0 | 0.00 | 0.00 | 0.00 | 98 | 1020.9 |
| 20260508103643 | 3 | 22 | 0.0 | 0.0 | 0.00 | 0.00 | 0.00 | 98 | 1021.0 |
| 20260508103140 | 3 | 23 | 0.0 | 0.0 | 0.00 | 0.00 | 0.00 | 98 | 1021.2 |
| 20260508102637 | 3 | 21 | 0.0 | 0.0 | 0.00 | 0.00 | 0.00 | 98 | 1021.0 |
| 20260508102135 | 3 | 21 | 0.0 | 0.0 | 0.00 | 0.00 | 0.00 | 98 | 1021.0 |
| 20260508101632 | 3 | 21 | 0.0 | 0.0 | 0.00 | 0.00 | 0.00 | 98 | 1021.2 |
| 20260508101130 | 3 | 24 | 0.0 | 0.0 | 0.00 | 0.00 | 0.00 | 98 | 1021.2 |
| 20260508100627 | 3 | 23 | 0.0 | 0.0 | 0.00 | 0.00 | 0.00 | 98 | 1020.8 |
| 20260508100125 | 3 | 22 | 0.0 | 0.0 | 0.00 | 0.00 | 0.00 | 98 | 1020.8 |
| 20260508095621 | 3 | 22 | 0.0 | 0.0 | 0.00 | 0.00 | 0.00 | 98 | 1021.0 |
| 20260508095118 | 3 | 22 | 0.0 | 0.0 | 0.00 | 0.00 | 0.00 | 98 | 1020.9 |
| 20260508094615 | 3 | 22 | 0.0 | 0.0 | 0.00 | 0.00 | 0.00 | 98 | 1021.0 |
| 20260508094112 | 3 | 22 | 0.0 | 0.0 | 0.00 | 0.00 | 0.00 | 97 | 1021.1 |
| 20260508093609 | 3 | 22 | 0.0 | 0.0 | 0.00 | 0.00 | 0.00 | 97 | 1021.0 |
| 20260508093107 | 3 | 25 | 0.0 | 0.0 | 0.00 | 0.00 | 0.00 | 97 | 1021.0 |
| 20260508092604 | 3 | 27 | 0.0 | 0.0 | 0.00 | 0.00 | 0.00 | 97 | 1021.1 |
| 20260508092102 | 3 | 35 | 0.0 | 0.0 | 0.00 | 0.00 | 0.00 | 97 | 1021.2 |
| 20260508091559 | 3 | 35 | 0.0 | 0.0 | 0.00 | 0.00 | 0.00 | 97 | 1020.9 |
| 20260508091056 | 3 | 18 | 0.0 | 0.0 | 0.00 | 0.00 | 0.00 | 97 | 1020.9 |
| 20260508090554 | 3 | 18 | 0.0 | 0.0 | 0.00 | 0.00 | 0.00 | 97 | 1021.1 |
| 20260508090050 | 3 | 18 | 0.0 | 0.0 | 0.00 | 0.00 | 0.00 | 97 | 1021.2 |
| 20260508085547 | 3 | 18 | 0.0 | 0.0 | 0.00 | 0.00 | 0.00 | 97 | 1021.1 |
| 20260508085044 | 3 | 18 | 0.0 | 0.0 | 0.00 | 0.00 | 0.00 | 97 | 1020.9 |
| 20260508084541 | 3 | 19 | 0.0 | 0.0 | 0.00 | 0.00 | 0.00 | 97 | 1021.2 |
| 20260508084038 | 3 | 19 | 0.0 | 0.0 | 0.00 | 0.00 | 0.00 | 97 | 1021.1 |
| 20260508083536 | 3 | 19 | 0.0 | 0.0 | 0.00 | 0.00 | 0.00 | 97 | 1021.0 |
| 20260508083032 | 3 | 19 | 0.0 | 0.0 | 0.00 | 0.00 | 0.00 | 97 | 1021.3 |
| 20260508082528 | 3 | 19 | 0.0 | 0.0 | 0.00 | 0.00 | 0.00 | 97 | 1021.2 |
| 20260508082026 | 3 | 19 | 0.0 | 0.0 | 0.00 | 0.00 | 0.00 | 97 | 1021.0 |
| 20260508081523 | 3 | 19 | 0.0 | 0.0 | 0.00 | 0.00 | 0.00 | 97 | 1021.1 |
| 20260508081019 | 3 | 21 | 0.0 | 0.0 | 0.00 | 0.00 | 0.00 | 97 | 1021.1 |
| 20260508080517 | 3 | 22 | 0.0 | 0.0 | 0.00 | 0.00 | 0.00 | 96 | 1021.1 |
| 20260508080014 | 3 | 25 | 0.0 | 0.0 | 0.00 | 0.00 | 0.00 | 96 | 1021.3 |
| 20260508075511 | 4 | 27 | 0.0 | 0.0 | 0.00 | 0.00 | 0.00 | 96 | 1021.1 |
| 20260508075008 | 4 | 26 | 0.0 | 0.0 | 0.00 | 0.00 | 0.00 | 96 | 1020.8 |
| 20260508074506 | 4 | 25 | 0.0 | 0.0 | 0.00 | 0.00 | 0.00 | 96 | 1021.2 |
| 20260508074002 | 4 | 17 | 0.0 | 0.0 | 0.00 | 0.00 | 0.00 | 96 | 1021.1 |
| 20260508073459 | 4 | 16 | 0.0 | 0.0 | 0.00 | 0.00 | 0.00 | 96 | 1021.1 |
| 20260508072956 | 4 | 16 | 0.0 | 0.0 | 0.00 | 0.00 | 0.00 | 96 | 1020.9 |
| 20260508072453 | 4 | 17 | 0.0 | 0.0 | 0.00 | 0.00 | 0.00 | 96 | 1021.0 |
| 20260508071950 | 4 | 18 | 0.0 | 0.0 | 0.00 | 0.00 | 0.00 | 96 | 1020.9 |
| 20260508071448 | 4 | 18 | 0.0 | 0.0 | 0.00 | 0.00 | 0.00 | 96 | 1021.3 |
| 20260508070945 | 4 | 18 | 0.0 | 0.0 | 0.00 | 0.00 | 0.00 | 96 | 1021.1 |
| 20260508070443 | 4 | 36 | 0.0 | 0.0 | 0.00 | 0.00 | 0.00 | 96 | 1021.1 |
| 20260508065941 | 4 | 6 | 0.0 | 0.0 | 0.00 | 0.00 | 0.00 | 95 | 1021.0 |
| 20260508065439 | 4 | 7 | 0.0 | 0.0 | 0.00 | 0.00 | 0.00 | 95 | 1021.0 |
| 20260508064937 | 5 | 7 | 0.0 | 0.0 | 0.00 | 0.00 | 0.00 | 95 | 1021.1 |
| 20260508064434 | 5 | 5 | 0.0 | 0.0 | 0.00 | 0.00 | 0.00 | 95 | 1021.0 |
| 20260508063931 | 5 | 11 | 0.0 | 3.2 | 0.00 | 0.00 | 0.00 | 95 | 1021.1 |
| 20260508063428 | 5 | 31 | 0.0 | 0.0 | 0.00 | 0.00 | 0.00 | 95 | 1021.0 |
| 20260508062926 | 5 | 36 | 0.0 | 0.0 | 0.00 | 0.00 | 0.00 | 95 | 1021.1 |
| 20260508062424 | 5 | 31 | 0.0 | 0.0 | 0.00 | 0.00 | 0.00 | 95 | 1021.0 |
| 20260508061920 | 5 | 31 | 0.0 | 0.0 | 0.00 | 0.00 | 0.00 | 95 | 1021.0 |
| 20260508061418 | 5 | 32 | 0.0 | 0.0 | 0.00 | 0.00 | 0.00 | 94 | 1020.9 |
| 20260508060914 | 5 | 31 | 0.0 | 0.0 | 0.00 | 0.00 | 0.00 | 94 | 1021.0 |
| 20260508060412 | 5 | 30 | 0.0 | 0.0 | 0.00 | 0.00 | 0.00 | 94 | 1021.0 |
| 20260508055907 | 5 | 31 | 0.0 | 0.0 | 0.00 | 0.00 | 0.00 | 94 | 1021.2 |
| 20260508055404 | 5 | 31 | 0.0 | 0.0 | 0.00 | 0.00 | 0.00 | 94 | 1021.1 |
| 20260508054900 | 5 | 30 | 0.0 | 0.0 | 0.00 | 0.00 | 0.00 | 93 | 1021.2 |
| 20260508054358 | 5 | 29 | 0.0 | 0.0 | 0.00 | 0.00 | 0.00 | 93 | 1021.2 |
| 20260508053855 | 5 | 28 | 0.0 | 0.0 | 0.00 | 0.00 | 0.00 | 93 | 1021.6 |
| 20260508053352 | 5 | 30 | 0.0 | 0.0 | 0.00 | 0.00 | 0.00 | 92 | 1021.3 |
| 20260508052850 | 5 | 31 | 0.0 | 0.0 | 0.00 | 0.00 | 0.00 | 92 | 1021.6 |
| 20260508052347 | 5 | 30 | 0.0 | 0.0 | 0.00 | 0.00 | 0.00 | 92 | 1021.7 |
| 20260508051843 | 5 | 30 | 0.0 | 0.0 | 0.00 | 0.00 | 0.00 | 91 | 1021.3 |
| 20260508051338 | 5 | 29 | 0.0 | 0.0 | 0.00 | 0.00 | 0.00 | 91 | 1021.6 |
| 20260508050835 | 5 | 28 | 0.0 | 0.0 | 0.00 | 0.00 | 0.00 | 91 | 1021.6 |
| 20260508050332 | 5 | 23 | 0.0 | 0.0 | 0.00 | 0.00 | 0.00 | 90 | 1021.7 |
| 20260508045828 | 6 | 34 | 0.0 | 0.0 | 0.00 | 0.00 | 0.00 | 90 | 1021.3 |
| 20260508045326 | 6 | 1 | 0.0 | 0.0 | 0.00 | 0.00 | 0.00 | 90 | 1021.2 |
| 20260508044823 | 6 | 17 | 0.0 | 0.0 | 0.00 | 0.00 | 0.00 | 89 | 1021.2 |
| 20260508044319 | 6 | 8 | 0.0 | 0.0 | 0.00 | 0.00 | 0.00 | 89 | 1021.3 |
| 20260508043816 | 6 | 18 | 0.0 | 0.0 | 0.00 | 0.00 | 0.00 | 89 | 1021.2 |
| 20260508043313 | 6 | 17 | 0.0 | 0.0 | 0.00 | 0.00 | 0.00 | 88 | 1021.2 |
| 20260508042809 | 6 | 27 | 0.0 | 0.0 | 0.00 | 0.00 | 0.00 | 87 | 1021.0 |
| 20260508042308 | 6 | 27 | 0.0 | 0.0 | 0.00 | 0.00 | 0.00 | 86 | 1021.3 |
| 20260508041804 | 6 | 10 | 3.2 | 3.2 | 0.00 | 0.00 | 0.00 | 87 | 1021.3 |
| 20260508041300 | 6 | 59 | 0.0 | 3.2 | 0.00 | 0.00 | 0.00 | 86 | 1021.2 |
| 20260508040756 | 6 | 20 | 0.0 | 0.0 | 0.00 | 0.00 | 0.00 | 87 | 1021.2 |
| 20260508040254 | 6 | 68 | 0.0 | 0.0 | 0.00 | 0.00 | 0.00 | 86 | 1021.1 |
| 20260508035752 | 6 | 25 | 0.0 | 0.0 | 0.00 | 0.00 | 0.00 | 85 | 1021.1 |
| 20260508035249 | 6 | 26 | 0.0 | 0.0 | 0.00 | 0.00 | 0.00 | 85 | 1021.3 |
| 20260508034745 | 6 | 25 | 0.0 | 0.0 | 0.00 | 0.00 | 0.00 | 84 | 1021.4 |
| 20260508034243 | 6 | 24 | 0.0 | 0.0 | 0.00 | 0.00 | 0.00 | 84 | 1021.3 |
| 20260508033740 | 7 | 25 | 0.0 | 0.0 | 0.00 | 0.00 | 0.00 | 84 | 1021.7 |
| 20260508033238 | 7 | 25 | 0.0 | 0.0 | 0.00 | 0.00 | 0.00 | 83 | 1021.4 |
| 20260508032735 | 7 | 13 | 0.0 | 0.0 | 0.00 | 0.00 | 0.00 | 83 | 1021.4 |
| 20260508032232 | 7 | 36 | 0.0 | 0.0 | 0.00 | 0.00 | 0.00 | 82 | 1021.6 |
| 20260508031729 | 7 | 37 | 0.0 | 0.0 | 0.00 | 0.00 | 0.00 | 81 | 1021.6 |
| 20260508031225 | 7 | 36 | 0.0 | 0.0 | 0.00 | 0.00 | 0.00 | 79 | 1021.6 |
| 20260508030722 | 7 | 36 | 0.0 | 0.0 | 0.00 | 0.00 | 0.00 | 78 | 1021.7 |
| 20260508030219 | 7 | 30 | 0.0 | 0.0 | 0.00 | 0.00 | 0.00 | 78 | 1021.6 |
| 20260508025715 | 7 | 24 | 0.0 | 0.0 | 0.00 | 0.00 | 0.00 | 77 | 1021.4 |
| 20260508025213 | 7 | 25 | 0.0 | 0.0 | 0.00 | 0.00 | 0.00 | 76 | 1021.4 |
| 20260508024708 | 7 | 25 | 0.0 | 0.0 | 0.00 | 0.00 | 0.00 | 75 | 1021.3 |
| 20260508024206 | 8 | 25 | 0.0 | 0.0 | 0.00 | 0.00 | 0.00 | 74 | 1021.6 |
| 20260508023702 | 8 | 27 | 0.0 | 0.0 | 0.00 | 0.00 | 0.00 | 72 | 1021.6 |
| 20260508023200 | 8 | 24 | 0.0 | 0.0 | 0.00 | 0.00 | 0.00 | 72 | 1021.7 |
| 20260508022655 | 8 | 32 | 0.0 | 0.0 | 0.00 | 0.00 | 0.00 | 70 | 1021.4 |
| 20260508022153 | 8 | 32 | 0.0 | 0.0 | 0.00 | 0.00 | 0.00 | 68 | 1021.1 |
| 20260508021648 | 8 | 21 | 0.0 | 0.0 | 0.00 | 0.00 | 0.00 | 69 | 1021.2 |
| 20260508021144 | 8 | 20 | 0.0 | 0.0 | 0.00 | 0.00 | 0.00 | 69 | 1021.3 |
| 20260508020642 | 9 | 43 | 0.0 | 0.0 | 0.00 | 0.00 | 0.00 | 70 | 1021.0 |
| 20260508020140 | 9 | 40 | 0.0 | 0.0 | 0.00 | 0.00 | 0.00 | 68 | 1021.1 |
| 20260508015637 | 9 | 26 | 0.0 | 0.0 | 0.00 | 0.00 | 0.00 | 67 | 1021.0 |
| 20260508015134 | 10 | 14 | 0.0 | 0.0 | 0.00 | 0.00 | 0.00 | 66 | 1020.9 |
| 20260508014630 | 10 | 35 | 0.0 | 0.0 | 0.00 | 0.00 | 0.00 | 66 | 1021.0 |
| 20260508014126 | 10 | 30 | 0.0 | 0.0 | 0.00 | 0.00 | 0.00 | 62 | 1020.7 |
| 20260508013622 | 10 | 31 | 0.0 | 0.0 | 0.00 | 0.00 | 0.00 | 61 | 1020.5 |
| 20260508013120 | 10 | 30 | 0.0 | 0.0 | 0.00 | 0.00 | 0.00 | 58 | 1020.7 |
| 20260508012617 | 11 | 31 | 0.0 | 0.0 | 0.00 | 0.00 | 0.00 | 57 | 1020.6 |
| 20260508012114 | 11 | 31 | 0.0 | 0.0 | 0.00 | 0.00 | 0.00 | 54 | 1020.6 |